Location: *
(51.0333°S, 178.4667°E)
Time: 04:48:44
(UTC+00:00)

Ariane Rocket - Pass Details

Date: 15 November 2019
Orbit: 759 x 771 km, 98.7° (Epoch: 14 December)

Event Time Altitude Azimuth Distance (km) Brightness Sun altitude
Rises 08:17:50 0° 164° (SSE) 3,282 6.6 -6.4°
Reaches altitude 10° 08:20:10 10° 163° (SSE) 2,350 5.9 -6.7°
Maximum altitude 08:25:22 80° 75° (ENE) 801 3.0 -7.3°
Drops below altitude 10° 08:30:31 10° 348° (NNW) 2,326 5.2 -7.9°
Sets 08:32:49 0° 346° (NNW) 3,246 6.0 -8.1°
